{"data":{"norad_id":59209,"intl_designator":"2024-046J","name":"STARLINK-31601","alt_names":[],"object_type":"PAYLOAD","status":"ACTIVE","operator":null,"country":"US","launch_date":"2024-03-11","launch_site_code":"AFWTR","launch_vehicle":null,"mission":null,"orbit_class":"UNKNOWN","rcs_meters":null,"size_class":null,"mass_kg":null,"dimensions":null,"purposes":["comms"],"wikipedia_slug":null,"has_3d_model":false,"image_url":null,"decayed_at":null,"tle_current":{"epoch":"2026-05-24T18:20:54.302496Z","epoch_age_seconds":95140,"freshness":"FRESH","line1":"1 59209U 24046J   26144.76451739  .00000498  00000+0  25887-4 0  9994","line2":"2 59209  53.1604 160.7976 0001191  90.4527 269.6613 15.34391269124712","mean_motion":15.34391269,"eccentricity":0.0001191,"inclination_deg":53.1604,"raan_deg":160.7976,"arg_perigee_deg":90.4527,"mean_anomaly_deg":269.6613,"bstar":2.5887e-5,"rev_number":12471,"period_min":93.848292094264,"perigee_km":461.91444353882,"apogee_km":463.54393786545,"semimajor_km":6840.8661907021,"source":"CELESTRAK","updated_at":"2026-05-25T13:38:18.865630Z"}}}